Location: East Horndon
(51.5667°N, 0.3500°E)
Time: 06:30:42
(UTC+00:00)

Cosmos 2061 Rocket - Pass Details

Date: 08 November 2025
Orbit: 964 x 1012 km, 82.9° (Epoch: 11 December)

Event Time Altitude Azimuth Distance (km) Brightness Sun altitude
Rises 06:04:52 0° 346° (NNW) 3,680 6.7 -9.6°
Reaches altitude 10° 06:07:30 10° 340° (NNW) 2,724 6.0 -9.2°
Maximum altitude 06:13:18 43° 271° (W) 1,338 4.3 -8.3°
Drops below altitude 10° 06:19:02 10° 202° (SSW) 2,697 6.3 -7.4°
Sets 06:21:39 0° 196° (SSW) 3,640 7.0 -7.1°
